Starlink 32481

operational
NORAD ID: 62320 Int'l Des: 2024-239 Owner: SPXS Country: US Constellation: starlink
LEOCIRCULAR

About Starlink 32481

Description loading...

Live Position

Loading 3D Globe...

Upcoming Passes

Altitude History

Altitude vs Time

uPlot chart will show altitude changes over time

Two-Line Element Set

1 62320U 24239V 26095.18094156 .00033554 00000-0 11410-2 0 9998
2 62320 53.1588 57.8145 0001189 83.4440 276.6696 15.30170503 73622
Epoch: Apr 5, 2026 • Age: 11 hours

Current Status

Altitude 480.3 km
Velocity 7.63 km/s
Sub-Earth Point 50.08°N, 102°E
Launch Date Dec 13, 2024
Age 1.3 years
Type internet

Technical Details

Classification Payload
Mass 730.00 kg
Dry Mass 700.00 kg
Total Mass 730.00 kg
Length 0.30 m
Diameter 4.10 m
Span 29.00 m
Shape Box + pan
Manufacturer SPXS
Bus Type Starlink V2M
Phase Status In Orbit
Owner/State SPXS/US

Large Constellations

Loading constellations...